Weather reports worldwide

Advertisment
Threave, United Kingdom (99090): temperature & dewpoint: 12.09.2019 04:00:00 - 18.09.2019 04:00:00 (BST)Threave, United Kingdom (99090): temperature -20cm & temperature -100cm: 12.09.2019 04:00:00 - 18.09.2019 04:00:00 (BST)Threave, United Kingdom (99090): precipitation: 12.09.2019 04:00:00 - 18.09.2019 04:00:00 (BST)
Date & Time tt [°C] td [°C] tt -20cm [°C] tt -100cm [°C] rr [mm]
18.09.2019 04:00:00 - - - - -
18.09.2019 03:00:00 7,8 6,0 - - 0,0
18.09.2019 02:00:00 7,6 6,0 - - 0,0
18.09.2019 01:00:00 7,2 5,8 - - 0,0
18.09.2019 00:00:00 6,7 4,4 - - 0,0
17.09.2019 23:00:00 6,7 5,5 - - 0,0
17.09.2019 22:00:00 6,9 5,1 - - 0,0
17.09.2019 21:00:00 8,5 5,5 - - 0,0
17.09.2019 20:00:00 10,7 4,7 - - 0,0
17.09.2019 19:00:00 12,6 5,2 - - 0,0
17.09.2019 18:00:00 14,4 4,0 - - 0,0
17.09.2019 17:00:00 15,3 4,6 - - 0,0
17.09.2019 16:00:00 16,1 5,7 - - 0,0
17.09.2019 15:00:00 16,0 5,0 - - 0,0
17.09.2019 14:00:00 16,4 7,2 - - 0,0
17.09.2019 13:00:00 15,4 6,3 - - 0,0
17.09.2019 12:00:00 15,1 8,3 - - 0,0
17.09.2019 11:00:00 13,0 8,0 - - 0,0
17.09.2019 10:00:00 11,7 7,8 14,0 13,7 0,0
17.09.2019 09:00:00 10,1 8,4 - - 0,0
17.09.2019 08:00:00 8,2 7,3 - - 0,0
17.09.2019 07:00:00 6,8 6,1 - - 0,0
17.09.2019 06:00:00 7,1 6,3 - - 0,0
17.09.2019 05:00:00 7,8 6,7 - - 0,0
17.09.2019 04:00:00 7,6 6,9 - - 0,0
17.09.2019 03:00:00 7,6 6,4 - - 0,0
17.09.2019 02:00:00 8,4 6,7 - - 0,0
17.09.2019 01:00:00 7,9 6,6 - - 0,0
17.09.2019 00:00:00 8,3 6,0 - - 0,0
16.09.2019 23:00:00 10,0 7,1 - - 0,0
16.09.2019 22:00:00 10,3 7,4 - - 0,0
16.09.2019 21:00:00 10,9 7,1 - - 0,0
16.09.2019 20:00:00 12,1 7,8 - - 0,0
16.09.2019 19:00:00 12,6 6,7 - - 0,0
16.09.2019 18:00:00 13,9 6,7 - - 0,0
16.09.2019 17:00:00 13,7 7,3 - - 0,0
16.09.2019 16:00:00 15,3 7,9 - - 0,0
16.09.2019 15:00:00 15,8 9,8 - - 0,0
16.09.2019 14:00:00 15,6 7,4 - - 0,0
16.09.2019 13:00:00 15,0 8,7 - - 0,0
16.09.2019 12:00:00 - - - - 0,0
16.09.2019 11:00:00 - - - - 0,0
16.09.2019 10:00:00 - - - - 0,0
16.09.2019 09:00:00 - - - - 0,0
16.09.2019 08:00:00 - - - - 0,0
16.09.2019 07:00:00 - - - - 0,0
16.09.2019 06:00:00 - - - - 0,0
16.09.2019 05:00:00 - - - - 0,0
16.09.2019 04:00:00 - - - - 0,0
16.09.2019 03:00:00 - - - - 0,0
16.09.2019 02:00:00 - - - - 0,0
16.09.2019 01:00:00 - - - - 0,0
16.09.2019 00:00:00 - - - - -
15.09.2019 23:00:00 - - - - -
15.09.2019 22:00:00 - - - - 0,0
15.09.2019 21:00:00 - - - - 0,0
15.09.2019 20:00:00 - - - - 0,0
15.09.2019 19:00:00 - - - - 0,0
15.09.2019 18:00:00 - - - - -
15.09.2019 17:00:00 - - - - -
15.09.2019 16:00:00 - - - - 0,0
15.09.2019 15:00:00 - - - - 0,0
15.09.2019 14:00:00 - - - - -
15.09.2019 13:00:00 14,3 8,1 - - 0,0
15.09.2019 12:00:00 13,5 7,2 - - 0,0
15.09.2019 11:00:00 13,5 8,6 - - 0,0
15.09.2019 10:00:00 12,6 9,1 14,4 14,0 0,0
15.09.2019 09:00:00 11,9 8,0 - - 0,0
15.09.2019 08:00:00 11,8 7,4 - - 0,0
15.09.2019 07:00:00 11,4 8,5 - - 0,0
15.09.2019 06:00:00 12,0 9,5 - - 0,0
15.09.2019 05:00:00 12,6 10,4 - - 0,0
15.09.2019 04:00:00 12,2 10,5 - - 0,0
15.09.2019 03:00:00 12,6 10,7 - - 0,0
15.09.2019 02:00:00 13,1 11,5 - - 0,0
15.09.2019 01:00:00 14,9 13,2 - - 0,0
15.09.2019 00:00:00 15,3 12,4 - - 0,0
14.09.2019 23:00:00 15,6 12,0 - - 0,0
14.09.2019 22:00:00 15,7 11,7 - - 0,0
14.09.2019 21:00:00 15,2 11,8 - - 0,0
14.09.2019 20:00:00 15,2 10,9 - - 0,0
14.09.2019 19:00:00 14,9 10,6 - - 0,0
14.09.2019 18:00:00 15,4 9,8 - - 0,0
14.09.2019 17:00:00 15,8 9,6 - - 0,0
14.09.2019 16:00:00 16,3 9,2 - - 0,0
14.09.2019 15:00:00 15,8 9,4 - - 0,0
14.09.2019 14:00:00 16,5 9,6 - - 0,0
14.09.2019 13:00:00 15,6 10,0 - - 0,0
14.09.2019 12:00:00 14,5 10,1 - - 0,0
14.09.2019 11:00:00 14,5 10,7 - - 0,0
14.09.2019 10:00:00 13,7 9,8 14,0 14,0 0,0
14.09.2019 09:00:00 12,8 10,6 - - 0,0
14.09.2019 08:00:00 10,6 10,3 - - 0,0
14.09.2019 07:00:00 8,8 8,6 - - 0,0
14.09.2019 06:00:00 7,2 7,0 - - 0,0
14.09.2019 05:00:00 5,7 5,3 - - 0,0
14.09.2019 04:00:00 6,5 6,2 - - 0,0
14.09.2019 03:00:00 6,5 6,2 - - 0,0
14.09.2019 02:00:00 6,6 6,3 - - 0,0
14.09.2019 01:00:00 6,5 6,0 - - 0,0
14.09.2019 00:00:00 7,6 6,9 - - 0,0
13.09.2019 23:00:00 8,5 7,7 - - 0,0
13.09.2019 22:00:00 9,8 8,8 - - 0,0
13.09.2019 21:00:00 10,0 8,3 - - 0,0
13.09.2019 20:00:00 10,5 7,1 - - 0,0
13.09.2019 19:00:00 13,8 6,3 - - 0,0
13.09.2019 18:00:00 14,8 6,0 - - 0,0
13.09.2019 17:00:00 16,6 6,8 - - 0,0
13.09.2019 16:00:00 16,8 7,1 - - 0,0
13.09.2019 15:00:00 16,8 8,9 - - 0,0
13.09.2019 14:00:00 16,7 9,0 - - 0,0
13.09.2019 13:00:00 15,4 10,6 - - 0,0
13.09.2019 12:00:00 13,7 10,2 - - 0,0
13.09.2019 11:00:00 13,4 10,6 - - 0,0
13.09.2019 10:00:00 12,2 10,9 - - 0,0
13.09.2019 09:00:00 - - - - 0,2
13.09.2019 08:00:00 - - - - 0,0
13.09.2019 07:00:00 7,3 6,9 - - 0,0
13.09.2019 06:00:00 7,8 7,4 - - 0,0
13.09.2019 05:00:00 7,9 7,6 - - 0,0
13.09.2019 04:00:00 7,0 6,6 - - 0,0
13.09.2019 03:00:00 7,1 6,7 - - 0,0
13.09.2019 02:00:00 6,9 6,3 - - 0,0
13.09.2019 01:00:00 7,9 6,4 - - 0,0
13.09.2019 00:00:00 8,7 7,4 - - 0,0
12.09.2019 23:00:00 7,8 7,0 - - 0,0
12.09.2019 22:00:00 9,0 8,0 - - 0,0
12.09.2019 21:00:00 10,2 8,2 - - 0,0
12.09.2019 20:00:00 11,7 8,3 - - 0,0
12.09.2019 19:00:00 13,8 10,3 - - 0,0
12.09.2019 18:00:00 13,6 11,0 - - 0,0
12.09.2019 17:00:00 15,4 12,7 - - 0,0
12.09.2019 16:00:00 16,3 15,5 - - 0,0
12.09.2019 15:00:00 16,3 15,8 - - 0,6
12.09.2019 14:00:00 15,9 15,5 - - 0,4
12.09.2019 13:00:00 15,6 15,2 - - 1,6
12.09.2019 12:00:00 15,4 14,9 - - 3,4
12.09.2019 11:00:00 14,7 14,2 - - 2,0
12.09.2019 10:00:00 13,4 12,7 14,9 14,2 0,8
12.09.2019 09:00:00 13,3 12,5 - - 0,2
12.09.2019 08:00:00 13,8 12,6 - - 0,0
12.09.2019 07:00:00 13,5 12,1 - - 0,0
12.09.2019 06:00:00 13,3 11,9 - - 0,0
12.09.2019 05:00:00 13,2 11,1 - - 0,0
12.09.2019 04:00:00 13,2 11,0 - - 0,0

tt = temperature
td = dewpoint
tt -20cm = temperature -20cm
tt -100cm = temperature -100cm
rr = precipitation

Next stations